Flight Track Log - Related Links

Times and Time Zones

All times are in EST time to prevent confusion due to time zone crossing. See the AMF1324 flight status page for this flight to view local times or setup timezone preferences in your user account.

Time Position Orientation Groundspeed Altitude Reporting Facility
EST Latitude Longitude Course Direction KTS MPH feet Rate Location/Type
Thu 06:28:10 AM 42.9333 -78.7333 216° Southwest 138 159 1,900  Level Buffalo TRACON
Thu 06:28:46 AM 42.9167 -78.7500 216° Southwest 141 162 3,300 1,938 Climbing Buffalo TRACON
Thu 06:29:46 AM 42.8833 -78.7000 132° Southeast 221 254 5,000 1,253 Climbing Buffalo TRACON
Thu 06:31:24 AM 42.8792 -78.5628 92° East 250 288 6,600 1,163 Climbing Cleveland Center
Thu 06:32:26 AM 42.8697 -78.4575 97° East 260 299 8,100 1,366 Climbing Cleveland Center
Thu 06:33:27 AM 42.8611 -78.3672 97° East 252 290 9,400 1,279 Climbing Cleveland Center
Thu 06:34:28 AM 42.8575 -78.2794 93° East 243 280 10,700 1,328 Climbing Cleveland Center
Thu 06:35:29 AM 42.8497 -78.1769 96° East 229 264 12,100 1,180 Climbing Cleveland Center
Thu 06:36:30 AM 42.8453 -78.0911 94° East 227 261 13,100 443 Climbing Cleveland Center
Thu 06:37:31 AM 42.8400 -77.9939 94° East 255 293 13,000 -49 Descending Cleveland Center
Thu 06:38:32 AM 42.8381 -77.8917 91° East 268 308 13,000 -49 Level Cleveland Center
Thu 06:39:34 AM 42.8358 -77.7875 92° East 273 314 12,900  Descending Cleveland Center
Thu 06:40:35 AM 42.8194 -77.6872 103° East 278 320 13,000 49 Climbing Cleveland Center
Thu 06:41:36 AM 42.7847 -77.5958 117° Southeast 272 313 13,000  Level Cleveland Center
Thu 06:42:38 AM 42.7481 -77.5025 118° Southeast 274 315 13,000  Level Cleveland Center
Thu 06:43:39 AM 42.7106 -77.4122 119° Southeast 273 314 13,000 -49 Level Cleveland Center
Thu 06:44:40 AM 42.6722 -77.3244 121° Southeast 270 311 12,900  Descending Cleveland Center
Thu 06:45:42 AM 42.6311 -77.2383 123° Southeast 270 311 13,000 49 Climbing Cleveland Center
Thu 06:46:43 AM 42.5908 -77.1525 122° Southeast 269 310 13,000 49 Level Cleveland Center
Thu 06:47:44 AM 42.5514 -77.0681 122° Southeast 268 308 13,100 49 Climbing Cleveland Center
Thu 06:48:46 AM 42.5122 -76.9833 122° Southeast 265 305 13,100  Level Cleveland Center
Thu 06:49:47 AM 42.4667 -76.8775 120° Southeast 270 311 13,100 -341 Level Cleveland Center
Thu 06:50:49 AM 42.4297 -76.7883 119° Southeast 271 312 12,400 -1,220 Descending Cleveland Center
Thu 06:51:50 AM 42.3897 -76.6839 117° Southeast 304 350 10,600 -1,463 Descending Cleveland Center
Thu 06:52:52 AM 42.3464 -76.5744 118° Southeast 328 377 9,400 -780 Descending Cleveland Center
Thu 06:53:53 AM 42.3247 -76.4603 104° East 319 367 9,000 -341 Descending Cleveland Center
Thu 06:54:55 AM 42.3128 -76.3411 98° East 302 348 8,700 -683 Descending Cleveland Center
Thu 06:55:56 AM 42.2967 -76.2242 101° East 311 358 7,600 -1,707 Descending Cleveland Center
Thu 06:56:58 AM 42.2828 -76.1067 99° East 317 365 5,200 -1,463 Descending Cleveland Center
Thu 06:57:59 AM 42.2744 -75.9994 96° East 304 350 4,600 -439 Descending Cleveland Center
Thu 06:59:01 AM 42.3017 -76.0072 348° North 211 243 4,300 -930 Descending Cleveland Center
Thu 07:00:08 AM 42.2550 -76.0211 192° South 65 75 2,600 -945 Descending New York Center
Thu 07:01:08 AM 42.2392 -76.0028 139° Southeast 84 97 2,300 -300 Descending New York Center

Login

Don't have an account? Register now (free) for customized features, flight alerts, and more!